EW2270 Weather Reports


time (UTC)temp
C
wind
direction
speed
KPH
gust
KPH
rain 1hr
cm
rain 24hr
cm
rain mn
cm
humidity
%
barometer
mb
20260905110058 11 172 4.8 6.4 0.00 0.00 0.00 80 1015.8
20260905104609 11 180 4.8 6.4 0.00 0.00 0.00 77 1015.4
20260905103049 11 141 0.0 1.6 0.00 0.00 0.00 75 1015.2
20260905101551 11 141 0.0 3.2 0.00 0.00 0.00 76 1015.2
20260905100047 11 139 3.2 4.8 0.00 0.00 0.00 77 1015.3
20260905094546 11 139 1.6 6.4 0.00 0.00 0.00 75 1015.0
20260905093045 11 129 1.6 8.0 0.00 0.00 0.00 75 1015.0
20260905091604 11 108 0.0 6.4 0.00 0.00 0.00 74 1015.1
20260905090044 12 108 4.8 6.4 0.00 0.00 0.00 71 1015.0
20260905084604 12 104 3.2 8.0 0.00 0.00 0.00 72 1015.1
20260905083141 12 248 0.0 6.4 0.00 0.00 0.00 70 1015.0
20260905081537 12 277 3.2 11.3 0.00 0.00 0.00 71 1015.1
20260905080040 10 205 0.0 3.2 0.00 0.00 0.00 78 1015.0
20260905074532 10 205 1.6 11.3 0.00 0.00 0.00 78 1014.9
20260905073033 10 18 6.4 9.7 0.00 0.00 0.00 76 1014.1
20260905071526 11 139 0.0 6.4 0.00 0.00 0.00 73 1014.0
20260905070042 10 139 1.6 6.4 0.00 0.00 0.00 76 1013.9
20260905064522 10 148 3.2 6.4 0.00 0.00 0.00 78 1013.9
20260905063020 9 162 3.2 6.4 0.00 0.00 0.00 77 1013.8
20260905061518 9 204 3.2 6.4 0.00 0.00 0.00 76 1013.6
20260905060018 10 204 1.6 4.8 0.00 0.00 0.00 75 1013.5
20260905054538 10 204 3.2 4.8 0.00 0.00 0.00 74 1013.3
20260905053016 10 204 1.6 6.4 0.00 0.00 0.00 73 1013.4
20260905051533 10 145 3.2 8.0 0.00 0.00 0.00 73 1013.3
20260905050014 10 152 0.0 3.2 0.00 0.00 0.00 70 1013.2
20260905044518 11 152 0.0 3.2 0.00 0.00 0.00 70 1013.2
20260905043012 12 155 0.0 9.7 0.00 0.00 0.00 66 1013.2
20260905041512 13 296 3.2 6.4 0.00 0.00 0.00 64 1013.2
20260905040011 13 250 0.0 3.2 0.00 0.00 0.00 60 1013.3
20260905034509 15 293 4.8 12.9 0.00 0.00 0.00 54 1013.1
20260905033018 14 68 6.4 9.7 0.00 0.00 0.00 56 1012.9
20260905031511 14 71 3.2 6.4 0.00 0.00 0.00 57 1012.7
20260905030008 15 332 3.2 6.4 0.00 0.00 0.00 53 1012.8
20260905024507 15 54 0.0 4.8 0.00 0.00 0.00 53 1012.7
20260905023007 16 59 8.0 14.5 0.00 0.00 0.00 48 1012.6
20260905021506 17 77 6.4 12.9 0.00 0.00 0.00 47 1012.5
20260905020011 18 56 8.0 17.7 0.00 0.00 0.00 44 1012.5
20260905014504 18 44 11.3 19.3 0.00 0.00 0.00 44 1012.5
20260905013004 18 64 8.0 16.1 0.00 0.00 0.00 44 1012.5
20260905011506 18 92 11.3 20.9 0.00 0.00 0.00 45 1012.4
20260905010003 18 81 16.1 32.2 0.00 0.00 0.00 45 1012.4
20260905004502 19 106 20.9 32.2 0.00 0.00 0.00 42 1012.1
20260905001559 21 4 12.9 25.7 0.00 0.00 0.00 37 1011.9
20260905000058 20 1 8.0 16.1 0.00 0.00 0.00 37 1011.8
20260904234556 20 345 6.4 17.7 0.00 0.00 0.00 37 1011.9
20260904233056 20 41 4.8 12.9 0.00 0.00 0.00 37 1011.9
20260904231555 20 34 3.2 16.1 0.00 0.00 0.00 40 1012.0
20260904230104 20 342 6.4 16.1 0.00 0.00 0.00 40 1012.2
20260904224607 20 30 3.2 9.7 0.00 0.00 0.00 38 1012.2
20260904223053 20 260 1.6 4.8 0.00 0.00 0.00 37 1012.2
20260904221552 21 13 1.6 9.7 0.00 0.00 0.00 36 1012.2
20260904220051 20 14 12.9 19.3 0.00 0.00 0.00 37 1012.3
20260904214555 20 308 8.0 14.5 0.00 0.00 0.00 39 1012.3
20260904213049 20 8 11.3 14.5 0.00 0.00 0.00 38 1012.3
20260904211552 20 23 8.0 16.1 0.00 0.00 0.00 38 1012.3
20260904210048 20 298 3.2 9.7 0.00 0.00 0.00 40 1012.1
20260904204543 19 292 4.8 11.3 0.00 0.00 0.00 41 1012.1
20260904203046 19 311 6.4 17.7 0.00 0.00 0.00 41 1012.2
20260904201545 19 27 11.3 16.1 0.00 0.00 0.00 42 1012.4
20260904200040 19 313 6.4 14.5 0.00 0.00 0.00 44 1012.3
20260904194537 18 335 6.4 14.5 0.00 0.00 0.00 44 1012.4
20260904193037 18 15 4.8 12.9 0.00 0.00 0.00 45 1012.6
20260904191534 18 352 8.0 12.9 0.00 0.00 0.00 45 1012.7
20260904190032 17 318 8.0 17.7 0.00 0.00 0.00 47 1012.8
20260904184530 17 336 4.8 16.1 0.00 0.00 0.00 47 1012.8
20260904183029 17 12 8.0 16.1 0.00 0.00 0.00 46 1013.0
20260904181527 17 30 8.0 14.5 0.00 0.00 0.00 48 1013.0
20260904180026 17 23 4.8 12.9 0.00 0.00 0.00 48 1013.1
20260904174525 17 13 4.8 9.7 0.00 0.00 0.00 49 1013.1
20260904173031 16 311 1.6 11.3 0.00 0.00 0.00 55 1013.0
20260904171519 15 10 1.6 8.0 0.00 0.00 0.00 57 1012.9
20260904170017 15 60 0.0 3.2 0.00 0.00 0.00 59 1013.1
20260904164512 14 279 0.0 4.8 0.00 0.00 0.00 63 1013.0
20260904163012 14 68 0.0 3.2 0.00 0.00 0.00 63 1012.9
20260904161507 12 345 0.0 6.4 0.00 0.00 0.00 69 1012.8
20260904160014 11 268 0.0 4.8 0.00 0.00 0.00 73 1012.8
20260904154504 10 299 3.2 8.0 0.00 0.00 0.00 73 1012.9
20260904153004 10 328 3.2 8.0 0.00 0.00 0.00 76 1012.8
20260904151502 9 108 1.6 4.8 0.00 0.00 0.00 79 1012.7
20260904150009 10 108 0.0 3.2 0.00 0.03 0.00 77 1012.6
20260904144603 8 108 0.0 0.0 0.00 0.03 0.00 80 1012.6
20260904143059 6 108 0.0 0.0 0.00 0.03 0.00 84 1012.5
20260904141559 6 108 0.0 0.0 0.00 0.03 0.00 83 1012.4
20260904140105 6 106 0.0 0.0 0.00 0.03 0.00 83 1012.1
20260904134604 5 106 0.0 0.0 0.00 0.03 0.00 86 1011.9
20260904133054 5 106 0.0 0.0 0.00 0.03 0.00 83 1011.7
20260904131548 6 106 0.0 0.0 0.00 0.03 0.00 82 1011.8
20260904130052 7 115 1.6 9.7 0.00 0.03 0.00 78 1011.5
20260904124553 6 101 4.8 6.4 0.00 0.03 0.00 81 1011.4
20260904123043 6 99 1.6 3.2 0.00 0.03 0.00 83 1011.4
20260904121540 7 99 0.0 0.0 0.00 0.03 0.00 81 1011.4
20260904120038 7 99 0.0 1.6 0.00 0.03 0.00 79 1011.3
20260904114538 7 99 1.6 4.8 0.00 0.03 0.00 82 1011.0
20260904113036 7 171 0.0 0.0 0.00 0.03 0.00 81 1010.9
20260904111539 7 171 0.0 3.2 0.00 0.03 0.00 80 1010.6